Terug naar catalogus

STARLINK-32573

ActiefCommunicatieVLEO
NORAD 61725·PAYLOAD·🇺🇸 United States

Gelanceerd Oct 30, 2024 vanaf Cape Canaveral Space Force Station

Loading…

Volgende Passages (komende 24 uur)

TLE

VersSource: CelesTrak SupGP

Epoch: Sep 15, 2026, 03:30 UTC

1 61725C 24196U   26258.14631944  .00013773  00000+0  40691-3 0  2589
2 61725  53.1590 298.9339 0001447  85.6016  38.2588 15.34384519    19

Volg STARLINK-32573 in realtime met AllMySat

Download on the App Store